EW7946 Senigallia IT current weather conditions

sailwx.info

Wind from 052

Air temperature 26.1° C
Dewpoint 20.9° C

Last reported at 2020-Aug-07 23:03 UTC.
Time now 2020-Aug-07 23:56 UTC

Location: N 43°43' E 013°12'.
View on Google Maps.

See reports from other nearby stations

  
Tides and Currents Weather Stations Pressure Air Temp Water Temp Dewpoint Dewpoint Depression Visibility Wind Speed Wind Dir Waves Ship Positions
date/time (UTC)wind fromknots sea level pressurealtimeterstation pressurevisibilityair tempwater tempwave heightnotes
2020-Aug-07 23:03 052 26.1
2020-Aug-07 22:33 326 26.1
2020-Aug-07 22:03 288 26.1
2020-Aug-07 21:33 287 26.1
2020-Aug-07 21:03 340 26.7
2020-Aug-07 20:33 287 26.7
2020-Aug-07 20:03 337 26.7
2020-Aug-07 19:33 281 26.7
2020-Aug-07 19:03 294 26.7
2020-Aug-07 18:33 005 27.2
2020-Aug-07 18:03 338 27.8
2020-Aug-07 17:33 315 28.3
2020-Aug-07 17:03 308 0 gusting 10 28.3
2020-Aug-07 16:33 006 27.8
2020-Aug-07 16:03 330 0 gusting 6 27.2
2020-Aug-07 15:33 306 0 gusting 9 27.2
2020-Aug-07 15:03 039 0 gusting 5 27.8
2020-Aug-07 14:33 077 0 gusting 11 27.2
2020-Aug-07 14:03 316 1 gusting 9 27.2
2020-Aug-07 13:33 310 0 gusting 9 27.2
2020-Aug-07 13:03 353 2 gusting 12 27.2
2020-Aug-07 12:33 032 1 gusting 10 27.8
2020-Aug-07 12:03 306 0 gusting 7 27.8
2020-Aug-07 11:33 324 0 gusting 7 27.2
2020-Aug-07 11:03 333 27.2
2020-Aug-07 10:33 018 26.7
2020-Aug-07 10:03 333 26.7
2020-Aug-07 09:33 053 26.1
2020-Aug-07 09:03 007 0 gusting 11 26.1
2020-Aug-07 08:33 001 0 gusting 8 25.6
2020-Aug-07 08:03 345 1 gusting 8 25.0
2020-Aug-07 07:33 338 1 gusting 9 25.0
2020-Aug-07 07:03 330 0 gusting 9 24.4
2020-Aug-07 06:33 041 24.4
2020-Aug-07 06:03 344 23.9
2020-Aug-07 05:03 256 21.7
2020-Aug-07 04:33 255 21.1
2020-Aug-07 04:03 329 21.7
2020-Aug-07 03:33 034 23.9
2020-Aug-07 03:03 338 23.3
2020-Aug-07 02:33 244 21.1
2020-Aug-07 02:03 251 21.1
2020-Aug-07 01:33 256 21.1
2020-Aug-07 01:03 255 21.7
2020-Aug-07 00:33 284 21.7
2020-Aug-07 00:03 285 21.7
2020-Aug-06 23:33 258 21.7
2020-Aug-06 23:03 266 21.7
2020-Aug-06 22:33 291 22.2
2020-Aug-06 22:03 254 22.2
2020-Aug-06 21:33 243 22.8
2020-Aug-06 21:03 281 23.9
2020-Aug-06 20:33 328 24.4
2020-Aug-06 20:03 319 24.4
2020-Aug-06 19:33 060 24.4
2020-Aug-06 19:03 057 24.4
2020-Aug-06 18:33 011 24.4
2020-Aug-06 18:03 070 25.0
2020-Aug-06 17:33 282 25.6
2020-Aug-06 17:03 015 25.6
2020-Aug-06 16:33 049 25.6
2020-Aug-06 16:03 034 25.6
2020-Aug-06 15:33 072 25.6
2020-Aug-06 15:03 049 25.6
2020-Aug-06 14:33 095 26.1
2020-Aug-06 14:03 344 26.1
2020-Aug-06 13:33 288 26.1
2020-Aug-06 13:03 001 26.1
2020-Aug-06 12:33 063 26.1
2020-Aug-06 12:03 037 26.1
2020-Aug-06 11:33 356 0 gusting 5 25.6
2020-Aug-06 11:03 341 25.6
2020-Aug-06 10:33 041 25.6
2020-Aug-06 10:03 034 25.0
2020-Aug-06 09:33 067 25.0
2020-Aug-06 09:03 032 24.4
2020-Aug-06 08:33 064 0 gusting 6 24.4
2020-Aug-06 08:03 012 0 gusting 6 23.9
2020-Aug-06 07:33 057 23.3
2020-Aug-06 07:03 319 22.2
2020-Aug-06 06:33 269 21.1
2020-Aug-06 06:03 302 20.6
2020-Aug-06 05:33 303 20.6
2020-Aug-06 05:03 342 20.6
2020-Aug-06 04:33 329 20.0
2020-Aug-06 04:03 287 20.6
2020-Aug-06 03:33 312 20.6
2020-Aug-06 03:03 266 20.6
2020-Aug-06 02:33 262 20.6
2020-Aug-06 02:03 240 20.6
2020-Aug-06 01:33 293 20.6
2020-Aug-06 01:03 320 22.2
2020-Aug-06 00:33 322 22.2
2020-Aug-06 00:03 008 22.2
2020-Aug-05 23:33 067 22.2
2020-Aug-05 23:03 328 22.2